Date String (YYYY-MM-DD hh:mm:ss) UTC,Instrument flags,absolute air pressure of the measurement (hPa),sample flow rate (lpm),inlet stack bypass flow (lpm),air temperature of the measurement (°C),ambient temperature measured by the external sensor (°C),aerosol sample conditioner tube jacket temperature (°C),OPC LED temperature (°C),internal box temperature (°C),relative humidity of the measurement (%),span deviation,mass concentration of particles derived from Lorenz-Mie calculation of OPC scattering (μg/m³),mass concentration of particles derived from Lorenz-Mie calculation of OPC scattering (μg/m³),mass concentration of particles derived from Lorenz-Mie calculation of OPC scattering (μg/m³)
DateTimeUTC,F1_M11,P_M11,Q1_M11,Q2_M11,T1_M11,T2_M11,T3_M11,T4_M11,T5_M11,U1_M11,ZSPAN_M11,X0_M11,X2_M11,X1_M11
2024-02-27 09:00:00,SystemResetWarning,0811.6,5.00,000.00,021.5,020.8,000.0,029.8,023.2,15.4,0000.0,0006.42,0001.44,0000.67
2024-02-27 09:01:00,SystemResetWarning,0811.6,5.01,000.00,021.5,020.8,000.0,029.8,023.2,15.6,0000.0,0006.06,0001.40,0000.67
2024-02-27 09:02:00,SystemResetWarning,0811.5,4.99,000.00,021.5,020.8,000.0,029.8,023.2,15.6,0000.0,0005.91,0001.35,0000.66
2024-02-27 09:03:00,SystemResetWarning,0811.5,4.99,000.00,021.5,020.8,000.0,029.8,023.2,15.6,0000.0,0006.58,0001.33,0000.67
2024-02-27 09:04:00,SystemResetWarning,0811.5,4.99,000.00,021.5,020.8,000.0,029.8,023.2,15.5,0000.0,0006.94,0001.39,0000.69
2024-02-27 09:05:00,SystemResetWarning,0811.5,4.99,000.00,021.5,020.8,000.0,029.8,023.2,15.8,0000.0,0007.01,0001.42,0000.69
2024-02-27 09:06:00,SystemResetWarning,0811.5,5.01,000.00,021.5,020.8,000.0,029.8,023.2,15.8,0000.0,0006.94,0001.44,0000.69
2024-02-27 09:07:00,SystemResetWarning,0811.5,5.01,000.00,021.5,020.8,000.0,029.8,023.2,15.7,0000.0,0007.02,0001.45,0000.70
2024-02-27 09:08:00,SystemResetWarning,0811.5,4.99,000.00,021.5,020.8,000.0,029.8,023.2,15.7,0000.0,0006.50,0001.46,0000.70
2024-02-27 09:09:00,SystemResetWarning,0811.5,4.99,000.00,021.5,020.8,000.0,029.8,023.2,15.6,0000.0,0005.36,0001.50,0000.70
2024-02-27 09:10:00,SystemResetWarning,0811.5,5.00,000.00,021.5,020.8,000.0,029.8,023.2,15.4,0000.0,0005.30,0001.51,0000.70
2024-02-27 09:11:00,SystemResetWarning,0811.5,5.01,000.00,021.5,020.8,000.0,029.8,023.2,15.3,0000.0,0005.17,0001.48,0000.72
2024-02-27 09:12:00,SystemResetWarning,0811.5,5.01,000.00,021.5,020.8,000.0,029.8,023.2,15.4,0000.0,0005.33,0001.46,0000.71
2024-02-27 09:13:00,SystemResetWarning,0811.5,5.01,000.00,021.5,020.8,000.0,029.8,023.2,15.4,0000.0,0005.89,0001.47,0000.71
2024-02-27 09:14:00,SystemResetWarning,0811.5,5.00,000.00,021.5,020.8,000.0,029.8,023.2,15.4,0000.0,0005.29,0001.45,0000.71
2024-02-27 09:15:00,SystemResetWarning,0811.4,5.00,000.00,021.5,020.8,000.0,029.8,023.2,15.3,0000.0,0004.80,0001.40,0000.70
2024-02-27 09:16:00,SystemResetWarning,0811.3,5.00,000.00,021.5,020.8,000.0,029.8,023.2,15.3,0000.0,0004.80,0001.38,0000.70
2024-02-27 09:17:00,SystemResetWarning,0811.3,5.00,000.00,021.5,020.8,000.0,029.8,023.2,15.3,0000.0,0005.29,0001.42,0000.71
2024-02-27 09:18:00,SystemResetWarning,0811.3,5.00,000.00,021.5,020.8,000.0,029.8,023.3,15.4,0000.0,0006.13,0001.36,0000.71
2024-02-27 09:19:00,SystemResetWarning,0811.3,5.00,000.00,021.5,020.8,000.0,029.8,023.3,15.3,0000.0,0006.30,0001.31,0000.70
2024-02-27 09:20:00,SystemResetWarning,0811.2,5.00,000.00,021.5,020.8,000.0,029.8,023.3,15.3,0000.0,0005.44,0001.31,0000.70
2024-02-27 09:21:00,SystemResetWarning,0811.2,4.99,000.00,021.5,020.8,000.0,029.8,023.3,15.3,0000.0,0005.64,0001.33,0000.70
2024-02-27 09:22:00,SystemResetWarning,0811.2,5.00,000.00,021.5,020.8,000.0,029.8,023.3,15.3,0000.0,0005.73,0001.32,0000.69
2024-02-27 09:23:00,SystemResetWarning,0811.1,5.00,000.00,021.5,020.8,000.0,029.8,023.3,15.3,0000.0,0005.54,0001.33,0000.68
2024-02-27 09:24:00,SystemResetWarning,0811.1,5.00,000.00,021.5,020.8,000.0,029.8,023.3,15.2,0000.0,0005.22,0001.37,0000.68
2024-02-27 09:25:00,SystemResetWarning,0811.1,5.00,000.00,021.5,020.8,000.0,029.8,023.3,15.4,0000.0,0005.37,0001.41,0000.69
2024-02-27 09:26:00,SystemResetWarning,0811.1,4.99,000.00,021.5,020.8,000.0,029.8,023.3,15.3,0000.0,0005.34,0001.42,0000.68
2024-02-27 09:27:00,SystemResetWarning,0811.1,4.99,000.00,021.5,020.8,000.0,029.8,023.3,15.3,0000.0,0005.34,0001.44,0000.68
2024-02-27 09:28:00,SystemResetWarning,0811.1,5.00,000.00,021.6,020.8,000.0,029.8,023.3,15.2,0000.0,0004.85,0001.38,0000.68
2024-02-27 09:29:00,SystemResetWarning,0811.1,5.01,000.00,021.6,020.8,000.0,029.8,023.3,15.0,0000.0,0004.13,0001.44,0000.68
2024-02-27 09:30:00,SystemResetWarning,0811.0,5.01,000.00,021.6,020.8,000.0,029.8,023.3,14.9,0000.0,0003.69,0001.46,0000.69
2024-02-27 09:31:00,SystemResetWarning,0811.0,5.00,000.00,021.6,020.9,000.0,029.8,023.3,14.8,0000.0,0004.25,0001.51,0000.70
2024-02-27 09:32:00,SystemResetWarning,0811.0,5.00,000.00,021.6,020.9,000.0,029.8,023.3,14.8,0000.0,0004.13,0001.51,0000.71
2024-02-27 09:33:00,SystemResetWarning,0811.0,5.00,000.00,021.6,020.9,000.0,029.8,023.3,15.0,0000.0,0004.08,0001.54,0000.72
2024-02-27 09:34:00,SystemResetWarning,0810.9,4.99,000.00,021.6,020.9,000.0,029.8,023.3,15.0,0000.0,0004.31,0001.58,0000.72
2024-02-27 09:35:00,SystemResetWarning,0810.9,4.99,000.00,021.6,020.9,000.0,029.8,023.3,15.0,0000.0,0004.42,0001.61,0000.73
2024-02-27 09:36:00,SystemResetWarning,0810.9,5.00,000.00,021.6,020.9,000.0,029.8,023.3,15.1,0000.0,0004.75,0001.60,0000.74
2024-02-27 09:37:00,SystemResetWarning,0810.9,5.00,000.00,021.6,020.9,000.0,029.8,023.3,15.0,0000.0,0005.26,0001.66,0000.75
2024-02-27 09:38:00,SystemResetWarning,0810.9,5.01,000.00,021.6,020.9,000.0,029.8,023.3,15.0,0000.0,0006.93,0001.62,0000.75
2024-02-27 09:39:00,SystemResetWarning,0810.9,5.00,000.00,021.6,020.9,000.0,029.8,023.3,15.0,0000.0,0008.26,0001.58,0000.75
2024-02-27 09:40:00,SystemResetWarning,0810.9,5.00,000.00,021.6,020.9,000.0,029.8,023.3,15.0,0000.0,0008.23,0001.53,0000.73
2024-02-27 09:41:00,SystemResetWarning,0810.9,4.99,000.00,021.6,020.9,000.0,029.8,023.4,15.2,0000.0,0008.33,0001.58,0000.73
2024-02-27 09:42:00,SystemResetWarning,0810.9,4.99,000.00,021.6,020.9,000.0,029.9,023.4,15.1,0000.0,0008.01,0001.59,0000.72
2024-02-27 09:43:00,SystemResetWarning,0810.9,5.00,000.00,021.6,020.9,000.0,029.9,023.4,15.3,0000.0,0007.91,0001.54,0000.71
2024-02-27 09:44:00,SystemResetWarning,0810.8,5.00,000.00,021.6,021.0,000.0,029.9,023.4,15.4,0000.0,0008.14,0001.58,0000.70
2024-02-27 09:45:00,SystemResetWarning,0810.9,5.01,000.00,021.7,020.9,000.0,029.9,023.4,15.6,0000.0,0008.64,0001.57,0000.70
2024-02-27 09:46:00,SystemResetWarning,0811.0,5.01,000.00,021.7,020.9,000.0,029.9,023.4,16.0,0000.0,0009.31,0001.49,0000.69
2024-02-27 09:47:00,SystemResetWarning,0810.9,5.00,000.00,021.6,020.9,000.0,029.9,023.4,16.5,0000.0,0009.44,0001.44,0000.67
2024-02-27 09:48:00,SystemResetWarning,0810.9,5.00,000.00,021.6,020.9,000.0,029.9,023.4,16.3,0000.0,0009.22,0001.40,0000.67
2024-02-27 09:49:00,SystemResetWarning,0810.8,5.00,000.00,021.6,020.9,000.0,029.9,023.4,16.3,0000.0,0008.66,0001.40,0000.67
2024-02-27 09:50:00,SystemResetWarning,0810.7,5.00,000.00,021.6,020.9,000.0,029.9,023.3,16.4,0000.0,0007.41,0001.47,0000.67
2024-02-27 09:51:00,SystemResetWarning,0810.7,5.00,000.00,021.6,020.9,000.0,029.9,023.3,16.3,0000.0,0007.06,0001.49,0000.67
2024-02-27 09:52:00,SystemResetWarning,0810.7,5.00,000.00,021.6,020.9,000.0,029.9,023.3,16.2,0000.0,0007.06,0001.46,0000.67
2024-02-27 09:53:00,SystemResetWarning,0810.7,5.00,000.00,021.6,020.9,000.0,029.9,023.4,16.0,0000.0,0007.65,0001.44,0000.68
2024-02-27 09:54:00,SystemResetWarning,0810.7,5.01,000.00,021.6,020.8,000.0,029.9,023.4,16.3,0000.0,0007.70,0001.46,0000.68
2024-02-27 09:55:00,SystemResetWarning,0810.7,5.01,000.00,021.6,020.8,000.0,029.9,023.4,15.8,0000.0,0007.69,0001.44,0000.69
2024-02-27 09:56:00,SystemResetWarning,0810.7,5.01,000.00,021.6,020.8,000.0,030.0,023.4,15.4,0000.0,0007.03,0001.44,0000.70
2024-02-27 09:57:00,SystemResetWarning,0810.7,5.01,000.00,021.6,020.8,000.0,030.0,023.4,15.4,0000.0,0005.74,0001.46,0000.69
2024-02-27 09:58:00,SystemResetWarning,0810.7,4.99,000.00,021.6,020.8,000.0,030.0,023.4,15.9,0000.0,0004.95,0001.48,0000.70
2024-02-27 09:59:00,SystemResetWarning,0810.6,5.00,000.00,021.6,020.8,000.0,030.0,023.4,16.1,0000.0,0005.00,0001.52,0000.70
